Home / Local Weather & Traffic / California / Grapevine Past Weather

Grapevine, CA Past Weather

Last 30 Days

 
High: 61ºf @4:13 PM    Low: 56ºf @12:13 PM     Approx. Precipitation / Rain Total: in.
Time (PDT)Temp. (ºf)Humidity (%)Dew Point (ºf)Barometer (inHG)Wind Speed (mph)Wind DirectionWind Gust (mph)1hr. Precip / Rain Total (in.)Snow Depth
7:13 PM576946.93-6.08n9.56--
6:13 PM596748.06-6.95n13.03--
4:13 PM616448.73-6.08n12.17--
3:13 PM616549.15-6.95n12.17--
2:13 PM606749.01-6.08nne12.17--
1:13 PM587249.02-6.95n12.17--
12:13 PM568150.25-6.95n13.9--
High: 51ºf @4:13 PM    Low: 51ºf @4:13 PM     Approx. Precipitation / Rain Total: in.
Time (PDT)Temp. (ºf)Humidity (%)Dew Point (ºf)Barometer (inHG)Wind Speed (mph)Wind DirectionWind Gust (mph)1hr. Precip / Rain Total (in.)Snow Depth
4:13 PM518245.7-5.21n9.56--
High: 68ºf @3:13 PM    Low: 51ºf @9:13 PM     Approx. Precipitation / Rain Total: in.
Time (PDT)Temp. (ºf)Humidity (%)Dew Point (ºf)Barometer (inHG)Wind Speed (mph)Wind DirectionWind Gust (mph)1hr. Precip / Rain Total (in.)Snow Depth
9:13 PM518847.57-1.74wnw5.21--
8:13 PM537946.66-3.48nne9.56--
5:13 PM626248.83-5.21nne12.17--
4:13 PM636249.77-6.95nne18.25--
3:13 PM683136.23-12.17sse23.46--
2:13 PM674243.14-10.43ssw22.59--
1:13 PM664342.86-13.9s21.72--
12:13 PM654643.71-15.64sse20.86--
11:13 AM634943.53-11.3sse20.86--
10:13 AM634541.32-13.03sse17.38--
9:13 AM595542.85-10.43sse14.77--
High: 65ºf @2:13 PM    Low: 57ºf @10:13 PM     Approx. Precipitation / Rain Total: in.
Time (PDT)Temp. (ºf)Humidity (%)Dew Point (ºf)Barometer (inHG)Wind Speed (mph)Wind DirectionWind Gust (mph)1hr. Precip / Rain Total (in.)Snow Depth
10:13 PM577047.31-3.48n5.21--
9:13 PM586947.89-3.48n4.34--
8:13 PM586947.89-4.34n6.95--
7:13 PM616448.73-4.34n7.82--
6:13 PM636048.89-4.34nne9.56--
5:13 PM655749.39-5.21nne9.56--
3:13 PM655447.94-6.95n11.3--
2:13 PM655648.91-6.08nne11.3--
1:13 PM625746.59-7.82nne11.3--
11:13 AM645547.5-4.34nne6.95--
High: 67ºf @4:13 PM    Low: 56ºf @10:13 PM     Approx. Precipitation / Rain Total: in.
Time (PDT)Temp. (ºf)Humidity (%)Dew Point (ºf)Barometer (inHG)Wind Speed (mph)Wind DirectionWind Gust (mph)1hr. Precip / Rain Total (in.)Snow Depth
10:13 PM566444-5.21n8.69--
9:13 PM576645.75-4.34n6.95--
8:13 PM576545.35-5.21n6.95--
7:13 PM605744.72-4.34n11.3--
6:13 PM645145.5-6.08n11.3--
5:13 PM654643.71-6.08n12.17--
4:13 PM674444.36-5.21n13.03--
3:13 PM664644.62-6.08n13.03--
1:13 PM654744.27-6.08n11.3--
12:13 PM625143.66-6.08nne13.9--
11:13 AM624942.62-6.08nne11.3--
10:13 AM615142.74-4.34n10.43--
9:13 AM594939.87-5.21nne10.43--
High: 58ºf @5:13 PM    Low: 49ºf @9:13 PM     Approx. Precipitation / Rain Total: in.
Time (PDT)Temp. (ºf)Humidity (%)Dew Point (ºf)Barometer (inHG)Wind Speed (mph)Wind DirectionWind Gust (mph)1hr. Precip / Rain Total (in.)Snow Depth
9:13 PM497240.37-6.08n7.82--
7:13 PM546341.69-5.21n10.43--
5:13 PM585541.92-6.08n11.3--
4:13 PM585240.47-6.08n13.03--
3:13 PM575540.99-7.82n11.3--
1:13 PM546542.5-6.95nne12.17--
11:13 AM526641-7.82n11.3--
9:13 AM546843.68-2.61s5.21--
High: 62ºf @2:13 PM    Low: 53ºf @9:13 PM     Approx. Precipitation / Rain Total: in.
Time (PDT)Temp. (ºf)Humidity (%)Dew Point (ºf)Barometer (inHG)Wind Speed (mph)Wind DirectionWind Gust (mph)1hr. Precip / Rain Total (in.)Snow Depth
10:13 PM536240.33-6.08n9.56--
9:13 PM536441.15-6.08n9.56--
7:13 PM566243.17-6.08n10.43--
6:13 PM585843.31-6.08-11.3--
4:13 PM615444.23-6.08n11.3--
3:13 PM625344.67-6.08n13.03--
2:13 PM625545.64-6.08nnw13.9--
10:13 AM605845.18-4.34nne6.95--
9:13 AM576344.53-4.34nne6.95--
High: 66ºf @3:13 PM    Low: 58ºf @10:13 PM     Approx. Precipitation / Rain Total: in.
Time (PDT)Temp. (ºf)Humidity (%)Dew Point (ºf)Barometer (inHG)Wind Speed (mph)Wind DirectionWind Gust (mph)1hr. Precip / Rain Total (in.)Snow Depth
10:13 PM584637.34-6.08n9.56--
9:13 PM585441.45-5.21-8.69--
7:13 PM624640.98-5.21n12.17--
5:13 PM663738.98-6.95n14.77--
3:13 PM665348.37-7.82n13.9--
2:13 PM645949.38-7.82n13.9--
12:13 PM627052.1-6.95n12.17--
9:13 AM607250.94-5.21n9.56--
High: 63ºf @4:13 PM    Low: 55ºf @9:13 PM     Approx. Precipitation / Rain Total: in.
Time (PDT)Temp. (ºf)Humidity (%)Dew Point (ºf)Barometer (inHG)Wind Speed (mph)Wind DirectionWind Gust (mph)1hr. Precip / Rain Total (in.)Snow Depth
10:13 PM556443.05-5.21n8.69--
9:13 PM556643.85-4.34n7.82--
6:13 PM615946.57-6.08n12.17--
4:13 PM635647.05-6.08n13.9--
2:13 PM625646.12-6.95n13.03--
1:13 PM606246.94-8.69n13.03--
11:13 AM606447.78-5.21nnw10.43--
10:13 AM586546.3-6.08n9.56--
9:13 AM576846.54-4.34nnw8.69--
High: 58ºf @4:13 PM    Low: 49ºf @9:13 AM     Approx. Precipitation / Rain Total: in.
Time (PDT)Temp. (ºf)Humidity (%)Dew Point (ºf)Barometer (inHG)Wind Speed (mph)Wind DirectionWind Gust (mph)1hr. Precip / Rain Total (in.)Snow Depth
10:13 PM516037.61-6.08n10.43--
9:13 PM506739.48-6.08n9.56--
8:13 PM506538.7-6.08n9.56--
7:13 PM535738.18-5.21-11.3--
6:13 PM565540.06-6.08n12.17--
5:13 PM585843.31-5.21n13.03--
4:13 PM585742.85-6.95n15.64--
2:13 PM565941.88-7.82n13.9--
12:13 PM546442.1-6.95n13.03--
11:13 AM527243.26-6.95n12.17--
9:13 AM498444.38-5.21nnw9.56--
High: 55ºf @1:13 PM    Low: ºf @9:13 AM     Approx. Precipitation / Rain Total: in.
Time (PDT)Temp. (ºf)Humidity (%)Dew Point (ºf)Barometer (inHG)Wind Speed (mph)Wind DirectionWind Gust (mph)1hr. Precip / Rain Total (in.)Snow Depth
10:13 PM488142.45-5.21n9.56--
9:13 PM497942.77-5.21n9.56--
6:13 PM546843.68-6.08n10.43--
3:13 PM556744.25-6.08nne12.17--
2:13 PM557045.4-6.95nne13.03--
1:13 PM557246.14-6.08nne10.43--
12:13 PM537444.94-5.21ne9.56--
10:13 AM508545.67-4.34nne7.82--
9:13 AM----4.34nne---
High: 62ºf @4:13 PM    Low: ºf @11:13 PM     Approx. Precipitation / Rain Total: in.
Time (PDT)Temp. (ºf)Humidity (%)Dew Point (ºf)Barometer (inHG)Wind Speed (mph)Wind DirectionWind Gust (mph)1hr. Precip / Rain Total (in.)Snow Depth
11:13 PM---------
10:13 PM527142.89-5.21nne6.95--
8:13 PM556945.02-3.48n5.21--
7:13 PM586345.47-3.48n8.69--
6:13 PM605845.18-5.21nne7.82--
4:13 PM625646.12-6.95nne11.3--
2:13 PM616047.01-6.08nne12.17--
12:13 PM586646.7-6.95nne10.43--
10:13 AM596446.84-3.48ne6.08--
High: 62ºf @4:13 PM    Low: 53ºf @9:13 PM     Approx. Precipitation / Rain Total: in.
Time (PDT)Temp. (ºf)Humidity (%)Dew Point (ºf)Barometer (inHG)Wind Speed (mph)Wind DirectionWind Gust (mph)1hr. Precip / Rain Total (in.)Snow Depth
11:13 PM536541.55-2.61nnw5.21--
10:13 PM536641.95-3.48n5.21--
9:13 PM536641.95-3.48n5.21--
8:13 PM546743.29-4.34n7.82--
7:13 PM556744.25-4.34n7.82--
6:13 PM576244.11-5.21n8.69--
5:13 PM615645.19-5.21n11.3--
4:13 PM625445.16-5.21nnw12.17--
3:13 PM615645.19-6.95n13.9--
1:13 PM606246.94-6.08-12.17--
12:13 PM586345.47-6.95nne11.3--
11:13 AM606246.94-5.21n8.69--
10:13 AM576946.93-5.21nnw9.56--
9:13 AM547746.95-4.34nnw8.69--
High: 61ºf @3:13 PM    Low: 49ºf @11:13 PM     Approx. Precipitation / Rain Total: in.
Time (PDT)Temp. (ºf)Humidity (%)Dew Point (ºf)Barometer (inHG)Wind Speed (mph)Wind DirectionWind Gust (mph)1hr. Precip / Rain Total (in.)Snow Depth
11:13 PM496838.9-5.21nne8.69--
10:13 PM516338.85-2.61nnw6.08--
9:13 PM525837.69-3.48n7.82--
8:13 PM535738.18-5.21n9.56--
7:13 PM565037.63-5.21-10.43--
6:13 PM584637.34-6.08n13.03--
3:13 PM614640.07-6.95n13.9--
2:13 PM604940.78-6.95n14.77--
12:13 PM575641.46-6.08n13.03--
11:13 AM565740.98-5.21n9.56--
10:13 AM575741.92-4.34n7.82--
9:13 AM536039.49-5.21nne9.56--
High: 61ºf @3:13 PM    Low: ºf @12:13 AM     Approx. Precipitation / Rain Total: in.
Time (PDT)Temp. (ºf)Humidity (%)Dew Point (ºf)Barometer (inHG)Wind Speed (mph)Wind DirectionWind Gust (mph)1hr. Precip / Rain Total (in.)Snow Depth
10:13 PM495935.3-6.95nne8.69--
9:13 PM516238.44-3.48w9.56--
8:13 PM525837.69-6.08n13.03--
7:13 PM555036.7-5.21n10.43--
6:13 PM574837.51-4.34nne13.9--
3:13 PM613734.54-5.21nne11.3--
2:13 PM603934.97-6.95n13.9--
1:13 PM594437.12-6.95n15.64--
12:13 PM584737.88-6.95nne12.17--
11:13 AM574938.03-6.08nne10.43--
10:13 AM575038.55-5.21nne8.69--
9:13 AM564635.51-4.34nnw7.82--
12:13 AM----4.34----
High: 64ºf @4:13 PM    Low: 52ºf @11:13 PM     Approx. Precipitation / Rain Total: in.
Time (PDT)Temp. (ºf)Humidity (%)Dew Point (ºf)Barometer (inHG)Wind Speed (mph)Wind DirectionWind Gust (mph)1hr. Precip / Rain Total (in.)Snow Depth
11:13 PM524933.44-5.21sse16.51--
10:13 PM545136.28-5.21sse13.9--
8:13 PM555539.13-5.21n9.56--
7:13 PM594738.8-6.08n12.17--
6:13 PM624439.83-6.95n13.9--
4:13 PM645145.5-6.08n15.64--
2:13 PM635345.59-6.95n13.9--
12:13 PM605744.72-6.95n13.9--
11:13 AM595944.69-6.95n13.03--
10:13 AM585943.75-9.56n13.9--
9:13 AM596045.13-6.08n9.56--
12:13 AM565138.13-8.69n12.17--
High: 65ºf @3:13 PM    Low: 55ºf @12:13 AM     Approx. Precipitation / Rain Total: in.
Time (PDT)Temp. (ºf)Humidity (%)Dew Point (ºf)Barometer (inHG)Wind Speed (mph)Wind DirectionWind Gust (mph)1hr. Precip / Rain Total (in.)Snow Depth
10:13 PM572521.54-6.95n12.17--
9:13 PM563226.57-6.08n10.43--
8:13 PM563830.76-6.95n10.43--
7:13 PM575038.55-6.95n9.56--
6:13 PM594638.25-6.08n13.9--
5:13 PM614539.5-6.08n12.17--
4:13 PM644139.82-6.95n13.9--
3:13 PM654442.55-7.82n13.9--
1:13 PM634541.32-7.82n13.03--
12:13 PM644441.65-5.21n10.43--
11:13 AM604639.16-6.08n13.03--
10:13 AM555036.7-8.69n13.03--
9:13 AM563931.4-8.69nne13.03--
12:13 AM557145.77-6.95n---
High: 66ºf @4:13 PM    Low: 58ºf @10:13 PM     Approx. Precipitation / Rain Total: in.
Time (PDT)Temp. (ºf)Humidity (%)Dew Point (ºf)Barometer (inHG)Wind Speed (mph)Wind DirectionWind Gust (mph)1hr. Precip / Rain Total (in.)Snow Depth
10:13 PM586546.3-5.21n9.56--
9:13 PM586847.5-6.08n9.56--
8:13 PM586245.05-6.08n8.69--
7:13 PM625445.16-5.21n10.43--
4:13 PM665147.35-6.08n13.03--
3:13 PM665147.35-6.95n13.03--
2:13 PM655045.9-7.82n13.9--
1:13 PM655246.94-8.69n13.03--
12:13 PM645547.5-6.95n11.3--
11:13 AM635144.58-6.95n9.56--
10:13 AM634843-6.08nne10.43--
9:13 AM614640.07-6.08nnw10.43--
12:13 AM623534.03-7.82n13.03--
High: 69ºf @3:13 PM    Low: 61ºf @10:13 PM     Approx. Precipitation / Rain Total: in.
Time (PDT)Temp. (ºf)Humidity (%)Dew Point (ºf)Barometer (inHG)Wind Speed (mph)Wind DirectionWind Gust (mph)1hr. Precip / Rain Total (in.)Snow Depth
11:13 PM632930.24-8.69n13.9--
10:13 PM614237.74-5.21n9.56--
8:13 PM624439.83-6.08n10.43--
7:13 PM624540.41-6.95n9.56--
6:13 PM654241.34-5.21n11.3--
4:13 PM694647.35-6.95n12.17--
3:13 PM694747.92-6.08n12.17--
2:13 PM674645.53-6.95n13.03--
11:13 AM654442.55-7.82nne9.56--
10:13 AM654241.34-5.21nne7.82--
9:13 AM654040.09-4.34n8.69--
High: 66ºf @4:13 PM    Low: 57ºf @8:13 PM     Approx. Precipitation / Rain Total: in.
Time (PDT)Temp. (ºf)Humidity (%)Dew Point (ºf)Barometer (inHG)Wind Speed (mph)Wind DirectionWind Gust (mph)1hr. Precip / Rain Total (in.)Snow Depth
10:13 PM575038.55-4.34n6.95--
9:13 PM574837.51-3.48nnw6.08--
8:13 PM574837.51-5.21n8.69--
6:13 PM643636.51-5.21nnw10.43--
4:13 PM664342.86-6.95nnw11.3--
3:13 PM654341.95-6.95n13.03--
2:13 PM634943.53-7.82n13.9--
11:13 AM634239.54-6.08n9.56--
10:13 AM634843-4.34nnw9.56--
9:13 AM615444.23-5.21n10.43--
High: 70ºf @12:13 PM    Low: 58ºf @9:13 PM     Approx. Precipitation / Rain Total: in.
Time (PDT)Temp. (ºf)Humidity (%)Dew Point (ºf)Barometer (inHG)Wind Speed (mph)Wind DirectionWind Gust (mph)1hr. Precip / Rain Total (in.)Snow Depth
9:13 PM584235.04-3.48nnw5.21--
8:13 PM593229.19-2.61nnw4.34--
7:13 PM613935.86-2.61n6.95--
6:13 PM644341.05-3.48n8.69--
5:13 PM644341.05-5.21nnw10.43--
2:13 PM664845.74-3.48nnw14.77--
12:13 PM701824.55-11.3sse16.51--
11:13 AM672024.61-9.56sse14.77--
12:13 AM594738.8-7.82n10.43--
High: 75ºf @2:13 PM    Low: 60ºf @12:13 AM     Approx. Precipitation / Rain Total: in.
Time (PDT)Temp. (ºf)Humidity (%)Dew Point (ºf)Barometer (inHG)Wind Speed (mph)Wind DirectionWind Gust (mph)1hr. Precip / Rain Total (in.)Snow Depth
11:13 PM614740.62-4.34n6.08--
9:13 PM653738.09-2.61ne5.21--
7:13 PM692228.57-7.82sse11.3--
5:13 PM742636.93-6.08ssw13.03--
4:13 PM733543.72-6.08sse9.56--
3:13 PM714649.16-4.34nne11.3--
2:13 PM753847.65-6.08s11.3--
1:13 PM742737.89-6.08se17.38--
12:13 PM723341.31-6.95sse12.17--
9:13 AM694244.94-2.61ese5.21--
12:13 AM605141.82-3.48nnw4.34--
High: 69ºf @12:13 PM    Low: 59ºf @11:13 PM     Approx. Precipitation / Rain Total: in.
Time (PDT)Temp. (ºf)Humidity (%)Dew Point (ºf)Barometer (inHG)Wind Speed (mph)Wind DirectionWind Gust (mph)1hr. Precip / Rain Total (in.)Snow Depth
11:13 PM595844.24-1.74nnw6.08--
10:13 PM605744.72-5.21n6.95--
9:13 PM605342.82-5.21n6.08--
8:13 PM615142.74-2.61nnw5.21--
6:13 PM644743.36-4.34nne7.82--
5:13 PM654945.37-5.21nne10.43--
4:13 PM654844.83-7.82nne12.17--
12:13 PM693540.2-6.95se16.51--
11:13 AM674041.87-6.08se11.3--
10:13 AM654744.27-5.21sse6.95--
9:13 AM643636.51-3.48s6.08--
High: 58ºf @7:13 PM    Low: ºf @11:13 PM     Approx. Precipitation / Rain Total: in.
Time (PDT)Temp. (ºf)Humidity (%)Dew Point (ºf)Barometer (inHG)Wind Speed (mph)Wind DirectionWind Gust (mph)1hr. Precip / Rain Total (in.)Snow Depth
11:13 PM----4.34n---
10:13 PM546542.5-5.21n7.82--
9:13 PM546542.5-4.34n6.08--
8:13 PM546843.68-3.48nnw6.95--
7:13 PM586044.19-4.34nnw8.69--
Past Weather Disclaimer Note regarding "Approx. Precipitation / Rain Total"

Past Weather Nearby

More Local Information

Bookmark and Share

Grapevine weather and traffic updates by locals

Write your own Grapevine, California report, forecast, or traffic update:

Please note by clicking on "Post" you acknowledge that you have read the Terms of Service and the Grapevine, CA report and/or forecast you are posting is in compliance with such terms. Be respectful. An inappropriate Grapevine, CA report and/or forecast will be removed by a moderator.